KC1UIX-13 Weather Reports


Display with metric or nautical units.
time (UTC)temp
F
wind
direction
speed
MPH
gust
MPH
rain 1hr
in
rain 24hr
in
rain mn
in
humidity
%
barometer
mb
20260504013020 45 233 1.0 3.0 0.00 0.00 0.00 58 1008.5
20260504012018 45 243 1.0 2.0 0.00 0.00 0.00 57 1008.4
20260504011018 46 258 1.0 2.0 0.00 0.00 0.00 57 1008.2
20260504010018 46 274 1.0 3.0 0.00 0.00 0.00 56 1008.0
20260504005018 47 275 2.0 4.0 0.00 0.00 0.00 55 1007.8
20260504004019 47 280 3.0 5.0 0.00 0.00 0.00 53 1007.6
20260504003019 47 283 3.0 8.0 0.00 0.00 0.00 53 1007.5
20260504002019 48 282 1.0 4.0 0.00 0.00 0.00 52 1007.3
20260504001019 48 287 3.0 7.0 0.00 0.00 0.00 51 1007.2
20260504000039 49 294 3.0 10.0 0.00 0.00 0.00 49 1007.0
20260503235019 49 302 5.0 11.0 0.00 0.00 0.00 48 1006.8
20260503234016 50 299 5.0 9.0 0.00 0.02 0.00 48 1006.7
20260503233017 51 293 5.0 14.0 0.00 0.03 0.00 47 1006.6
20260503232040 51 319 4.0 9.0 0.00 0.03 0.00 47 1006.4
20260503231020 52 301 5.0 11.0 0.00 0.03 0.00 46 1006.2
20260503230020 52 299 5.0 9.0 0.00 0.03 0.00 46 1006.0
20260503225017 52 311 5.0 10.0 0.00 0.03 0.00 46 1005.9
20260503224018 52 297 6.0 12.0 0.00 0.03 0.00 46 1005.8
20260503223018 51 301 5.0 13.0 0.00 0.03 0.00 48 1005.7
20260503222018 51 322 6.0 12.0 0.00 0.03 0.00 48 1005.5
20260503221018 52 316 5.0 11.0 0.00 0.03 0.00 48 1005.4
20260503220018 52 295 5.0 12.0 0.00 0.03 0.00 48 1005.3
20260503215018 54 296 8.0 16.0 0.00 0.03 0.00 47 1005.2
20260503214021 54 287 7.0 17.0 0.00 0.03 0.00 46 1005.0
20260503213059 54 282 7.0 17.0 0.00 0.03 0.00 47 1005.0
20260503212040 52 287 6.0 14.0 0.00 0.03 0.00 48 1004.9
20260503211019 52 312 4.0 10.0 0.00 0.03 0.00 49 1004.8
20260503210019 52 316 5.0 13.0 0.00 0.03 0.00 50 1004.7
20260503205016 52 290 7.0 13.0 0.00 0.03 0.00 50 1004.7
20260503204019 52 290 6.0 13.0 0.00 0.03 0.00 50 1004.7
20260503203020 53 288 6.0 11.0 0.00 0.03 0.00 51 1004.7
20260503202040 53 328 4.0 11.0 0.00 0.03 0.00 52 1004.6
20260503201100 53 318 4.0 13.0 0.00 0.03 0.00 53 1004.7
20260503200018 53 316 6.0 13.0 0.00 0.03 0.00 54 1004.8
20260503195037 52 330 4.0 12.0 0.00 0.03 0.00 56 1004.8
20260503194017 52 301 4.0 10.0 0.00 0.03 0.00 58 1004.9
20260503193018 52 306 5.0 13.0 0.00 0.03 0.00 58 1005.0
20260503192021 52 293 7.0 14.0 0.00 0.03 0.00 59 1005.0
20260503191018 52 306 5.0 12.0 0.00 0.03 0.00 59 1005.1
20260503190038 51 316 4.0 9.0 0.00 0.03 0.00 61 1005.1
20260503185018 50 315 4.0 11.0 0.00 0.03 0.00 62 1005.2
20260503184018 50 339 4.0 12.0 0.00 0.03 0.00 65 1005.2
20260503183019 49 329 5.0 10.0 0.00 0.03 0.00 67 1005.3
20260503182019 49 314 6.0 16.0 0.00 0.03 0.00 68 1005.3
20260503181039 49 296 5.0 12.0 0.00 0.03 0.00 69 1005.3
20260503180059 49 307 6.0 16.0 0.00 0.03 0.00 65 1005.3
20260503175019 50 307 5.0 12.0 0.00 0.03 0.00 62 1005.3
20260503174039 49 308 5.0 12.0 0.00 0.03 0.00 64 1005.3
20260503173019 48 334 5.0 12.0 0.00 0.03 0.00 65 1005.3
20260503172017 48 329 5.0 15.0 0.00 0.03 0.00 66 1005.3
20260503171017 47 321 7.0 14.0 0.00 0.03 0.00 66 1005.3
20260503131018 44 354 4.0 9.0 0.00 0.05 0.00 90 1005.8
20260503081019 44 355 1.0 3.0 0.00 0.15 0.00 99 1007.8
20260503072021 44 1 1.0 4.0 0.00 0.15 0.00 99 1008.2
20260503071017 44 11 2.0 4.0 0.00 0.15 0.00 99 1008.1
20260503055019 45 335 2.0 5.0 0.00 0.15 0.00 100 1008.9
20260503054019 45 325 2.0 6.0 0.00 0.15 0.00 100 1009.0
20260503053040 45 345 2.0 5.0 0.00 0.15 0.00 100 1009.1
20260503052016 45 344 2.0 5.0 0.00 0.15 0.00 100 1009.3
20260503051037 45 317 2.0 6.0 0.00 0.15 0.00 100 1009.6
20260503050020 45 307 3.0 8.0 0.00 0.15 0.00 100 1009.8
20260503045020 45 303 3.0 7.0 0.00 0.15 0.00 99 1010.0
20260503044020 45 287 3.0 7.0 0.00 0.15 0.00 99 1010.1
20260503043017 45 324 2.0 5.0 0.00 0.15 0.00 99 1009.9
20260503042018 45 337 1.0 5.0 0.00 0.15 0.00 100 1010.0
20260503041018 45 313 1.0 4.0 0.00 0.15 0.00 99 1010.0
20260503040058 45 294 3.0 5.0 0.00 0.15 0.00 99 1010.0
20260503035018 45 322 1.0 6.0 0.00 0.15 0.15 99 1009.8
20260503034018 45 29 0.0 2.0 0.00 0.15 0.15 100 1009.7
20260503033018 46 24 1.0 5.0 0.00 0.15 0.15 99 1009.8
20260503032018 46 13 0.0 4.0 0.00 0.15 0.15 99 1009.9
20260503031018 46 2 0.0 2.0 0.00 0.15 0.15 99 1010.3
20260503030018 46 356 1.0 2.0 0.00 0.15 0.15 99 1010.4
20260503025018 46 359 1.0 2.0 0.00 0.15 0.15 99 1010.7
20260503024016 46 342 1.0 3.0 0.00 0.15 0.15 99 1010.8
20260503023019 46 313 1.0 3.0 0.00 0.15 0.15 99 1010.9
20260503022039 46 291 2.0 3.0 0.00 0.15 0.15 99 1011.0
20260503021020 46 293 2.0 3.0 0.00 0.15 0.15 99 1011.0
20260503020020 46 321 1.0 4.0 0.00 0.15 0.15 99 1011.0
20260503015040 46 330 1.0 4.0 0.00 0.15 0.15 99 1011.0
20260503014017 46 341 0.0 2.0 0.00 0.15 0.15 99 1011.1